Overview Statistics Trail Chart Weather Telemetry Raw packets
 

This is the latest recevied weather packets stored in our database for station/object N1YZ. If no packets are shown the sender has not sent any weather packets the latest 10 day(s).

<< 14 15 16 17 18 19 20 >>
Time Temp. Humidity Pressure Rain* Wind** Luminosity Snow
1788555227 34.44° C 57% 1032.8 hPa 0 mm - 93 W/m² -
1788554924 34.44° C 57% 1032.9 hPa 0 mm - 89 W/m² -
1788554620 34.44° C 54% 1032.9 hPa 0 mm - 72 W/m² -
1788554316 33.89° C 55% 1032.9 hPa 0 mm - 91 W/m² -
1788554012 33.89° C 57% 1032.8 hPa 0 mm - 446 W/m² -
1788553707 34.44° C 59% 1033 hPa 0 mm - 78 W/m² -
1788553403 34.44° C 58% 1033.1 hPa 0 mm - 351 W/m² -
1788553099 33.89° C 58% 1033.1 hPa 0 mm - 166 W/m² -
1788552799 35° C 59% 1033.1 hPa 0 mm - 90 W/m² -
1788552494 34.44° C 54% 1033.5 hPa 0 mm - 79 W/m² -
1788552188 34.44° C 55% 1033.5 hPa 0 mm - 67 W/m² -
1788551888 35° C 56% 1033.6 hPa 0 mm - 61 W/m² -
1788551586 34.44° C 55% 1033.7 hPa 0 mm - 72 W/m² -
1788551281 34.44° C 56% 1033.6 hPa 0 mm - 63 W/m² -
1788550980 34.44° C 54% 1033.7 hPa 0 mm - 67 W/m² -
1788550676 34.44° C 58% 1033.9 hPa 0 mm - 85 W/m² -
1788550371 34.44° C 59% 1033.9 hPa 0 mm - 87 W/m² -
1788550066 34.44° C 59% 1034 hPa 0 mm - 96 W/m² -
1788549762 34.44° C 59% 1034.5 hPa 0 mm - 87 W/m² -
1788549458 33.89° C 58% 1034.3 hPa 0 mm - 104 W/m² -
1788549155 35° C 59% 1034.4 hPa 0 mm - 77 W/m² -
1788548851 35° C 56% 1034.4 hPa 0 mm - 115 W/m² -
1788548546 35° C 56% 1034.6 hPa 0 mm - 124 W/m² -
1788548243 35° C 56% 1035 hPa 0 mm - 506 W/m² -
1788547942 33.89° C 58% 1034.7 hPa 0 mm - 630 W/m² -

* Rain latest hour (hover to see other rain measurements)
** Current wind speed in m/s (hover to see current wind gust speed)